TimeEDT,TemperatureF,Dew PointF,Humidity,Sea Level PressureIn,VisibilityMPH,Wind Direction,Wind SpeedMPH,Gust SpeedMPH,PrecipitationIn,Events,Conditions,WindDirDegrees,DateUTC
12:58 AM,76.3,75.9,99,30.17,10.0,ESE,1.2,-,N/A,,Clear,120,2013-07-30 04:58:00
1:58 AM,75.0,74.5,98,30.16,10.0,SE,3.5,-,N/A,,Clear,140,2013-07-30 05:58:00
2:43 AM,75.2,75.2,100,30.15,7.0,Calm,Calm,-,N/A,,Clear,0,2013-07-30 06:43:00
2:58 AM,74.3,73.6,98,30.15,10.0,Calm,Calm,-,N/A,,Clear,0,2013-07-30 06:58:00
3:03 AM,73.4,73.4,100,30.14,8.0,Calm,Calm,-,N/A,,Clear,0,2013-07-30 07:03:00
3:18 AM,75.2,73.4,94,30.14,1.8,Calm,Calm,-,N/A,,Clear,0,2013-07-30 07:18:00
3:23 AM,75.2,75.2,100,30.14,0.8,Calm,Calm,-,N/A,,Clear,0,2013-07-30 07:23:00
3:38 AM,75.2,73.4,94,30.13,1.0,SE,2.3,-,N/A,,Clear,130,2013-07-30 07:38:00
3:43 AM,73.4,73.4,100,30.13,3.0,ESE,1.2,-,N/A,,Clear,110,2013-07-30 07:43:00
3:48 AM,73.4,71.6,94,30.13,0.8,ESE,1.2,-,N/A,,Clear,110,2013-07-30 07:48:00
3:53 AM,73.4,71.6,94,30.12,0.8,Calm,Calm,-,N/A,,Clear,0,2013-07-30 07:53:00
3:58 AM,72.7,72.1,98,30.13,0.8,ESE,1.2,-,N/A,,Clear,110,2013-07-30 07:58:00
4:18 AM,73.4,73.4,100,30.12,1.2,Calm,Calm,-,N/A,,Clear,0,2013-07-30 08:18:00
4:23 AM,73.4,71.6,94,30.12,8.0,Calm,Calm,-,N/A,,Clear,0,2013-07-30 08:23:00
4:28 AM,73.4,73.4,100,30.12,1.2,Calm,Calm,-,N/A,,Clear,0,2013-07-30 08:28:00
4:33 AM,73.4,73.4,100,30.12,0.5,Calm,Calm,-,N/A,Fog,Fog,0,2013-07-30 08:33:00
4:43 AM,73.4,73.4,100,30.13,1.8,NNW,3.5,-,N/A,,Clear,340,2013-07-30 08:43:00
4:48 AM,73.4,73.4,100,30.13,10.0,NNW,3.5,-,N/A,,Clear,330,2013-07-30 08:48:00
4:58 AM,73.8,73.2,98,30.13,10.0,NNW,3.5,-,N/A,,Clear,330,2013-07-30 08:58:00
5:28 AM,73.4,73.4,100,30.13,6.0,Calm,Calm,-,N/A,,Clear,0,2013-07-30 09:28:00
5:33 AM,73.4,73.4,100,30.13,4.0,Calm,Calm,-,N/A,,Clear,0,2013-07-30 09:33:00
5:38 AM,73.4,73.4,100,30.13,1.5,Calm,Calm,-,N/A,,Clear,0,2013-07-30 09:38:00
5:48 AM,71.6,71.6,100,30.13,4.0,Calm,Calm,-,N/A,,Clear,0,2013-07-30 09:48:00
5:53 AM,73.4,73.4,100,30.13,1.0,Calm,Calm,-,N/A,,Clear,0,2013-07-30 09:53:00
5:58 AM,74.5,73.9,98,30.14,0.8,Calm,Calm,-,N/A,,Clear,0,2013-07-30 09:58:00
6:03 AM,73.4,73.4,100,30.13,1.8,Calm,Calm,-,N/A,,Clear,0,2013-07-30 10:03:00
6:18 AM,73.4,73.4,100,30.14,1.0,Calm,Calm,-,N/A,,Clear,0,2013-07-30 10:18:00
6:23 AM,73.4,71.6,94,30.13,0.5,Calm,Calm,-,N/A,Fog,Fog,0,2013-07-30 10:23:00
6:33 AM,71.6,71.6,100,30.14,0.8,North,2.3,-,N/A,,Clear,360,2013-07-30 10:33:00
6:38 AM,71.6,71.6,100,30.15,1.0,North,2.3,-,N/A,,Clear,360,2013-07-30 10:38:00
6:48 AM,73.4,73.4,100,30.15,2.0,NE,2.3,-,N/A,,Clear,40,2013-07-30 10:48:00
6:53 AM,73.4,71.6,94,30.15,5.0,NE,2.3,-,N/A,,Clear,40,2013-07-30 10:53:00
6:58 AM,72.5,72.0,98,30.16,6.0,ENE,2.3,-,N/A,,Clear,60,2013-07-30 10:58:00
7:08 AM,73.4,73.4,100,30.16,2.5,East,1.2,-,N/A,,Clear,80,2013-07-30 11:08:00
7:13 AM,73.4,71.6,94,30.16,4.0,East,2.3,-,N/A,,Clear,90,2013-07-30 11:13:00
7:58 AM,76.8,75.7,96,30.17,10.0,Calm,Calm,-,N/A,,Clear,0,2013-07-30 11:58:00
8:58 AM,82.8,77.2,83,30.18,10.0,Variable,1.2,-,N/A,,Clear,0,2013-07-30 12:58:00
9:58 AM,84.2,75.4,75,30.18,10.0,Calm,Calm,-,N/A,,Clear,0,2013-07-30 13:58:00
10:58 AM,85.5,76.3,74,30.20,10.0,NNW,5.8,-,N/A,,Scattered Clouds,340,2013-07-30 14:58:00
11:10 AM,86.0,77.0,74,30.19,10.0,West,8.1,-,N/A,,Light Drizzle,270,2013-07-30 15:10:00
11:21 AM,86.0,75.2,70,30.19,10.0,Variable,5.8,-,N/A,,Partly Cloudy,0,2013-07-30 15:21:00
11:36 AM,84.2,75.2,74,30.19,10.0,Variable,4.6,-,N/A,,Mostly Cloudy,0,2013-07-30 15:36:00
11:41 AM,84.2,75.2,74,30.18,10.0,Variable,2.3,-,N/A,,Scattered Clouds,0,2013-07-30 15:41:00
11:58 AM,86.9,75.4,68,30.19,10.0,Variable,2.3,-,0.00,,Partly Cloudy,0,2013-07-30 15:58:00
12:58 PM,87.3,76.3,70,30.19,10.0,East,9.2,-,N/A,,Clear,90,2013-07-30 16:58:00
1:58 PM,87.3,77.2,72,30.18,10.0,East,10.4,-,N/A,,Partly Cloudy,80,2013-07-30 17:58:00
2:58 PM,87.6,77.7,72,30.16,10.0,Variable,5.8,-,N/A,,Clear,0,2013-07-30 18:58:00
3:58 PM,86.2,77.5,75,30.14,10.0,East,8.1,-,N/A,,Clear,100,2013-07-30 19:58:00
4:58 PM,85.5,76.8,75,30.13,10.0,East,8.1,-,N/A,,Clear,100,2013-07-30 20:58:00
5:58 PM,85.1,76.6,76,30.12,10.0,ESE,9.2,-,N/A,,Clear,120,2013-07-30 21:58:00
6:58 PM,84.4,77.4,79,30.13,10.0,SSE,10.4,-,N/A,,Clear,150,2013-07-30 22:58:00
7:58 PM,82.4,77.4,85,30.13,10.0,SSE,5.8,-,N/A,,Clear,160,2013-07-30 23:58:00
8:58 PM,79.3,76.8,92,30.14,10.0,ESE,3.5,-,N/A,,Clear,110,2013-07-31 00:58:00
9:58 PM,78.3,76.5,94,30.15,10.0,ESE,4.6,-,N/A,,Clear,110,2013-07-31 01:58:00
10:58 PM,78.3,76.8,95,30.16,10.0,SE,4.6,-,N/A,,Clear,130,2013-07-31 02:58:00
11:58 PM,76.8,75.6,96,30.16,10.0,WNW,2.3,-,N/A,,Clear,290,2013-07-31 03:58:00